CMA CGM Butterfly — A8NO8 — position and weather

sailwx.info

Track history (hours):
 
Tides and Currents Weather Stations Pressure Air Temp Water Temp Dewpoint Dewpoint Depression Visibility Wind Speed Wind Dir Waves Ship Positions

CMA CGM Butterfly

Last reported at 2014-Jul-28 22:33 UTC. Time now 2014-Jul-28 22:40 UTC.
Position N 31°21' E 032°23'.

Length 350 m; draft 13.6 m.

Type: Ship (hazmat cat A). MMSI: 636091420.

Date/timePositionNaut miles runAvg speedWind from/ knotsBaromVisibWave heightAir tempDewpointWater temp
2014-Jul-28 22:33N 31°21' E 032°23'8 7.5
2014-Jul-28 21:33N 31°28' E 032°19'1 0.9
2014-Jul-28 20:33N 31°28' E 032°18'0 0.0
2014-Jul-28 18:33N 31°28' E 032°18'0 0.0
2014-Jul-28 17:33N 31°28' E 032°18'0 0.1
2014-Jul-28 16:33N 31°28' E 032°18'7 7.3
2014-Jul-28 15:33N 31°33' E 032°11'1716.7
2014-Jul-28 14:33N 31°44' E 031°58'1818.2
2014-Jul-28 13:33N 31°55' E 031°41'2618.7
2014-Jul-28 12:12N 32°02' E 031°11'1718.6
2014-Jul-28 11:17N 32°06' E 030°52'1418.7
2014-Jul-28 10:33N 32°10' E 030°37'2118.4
2014-Jul-28 09:25N 32°15' E 030°13'1718.2
2014-Jul-28 08:28N 32°20' E 029°53'4318.3
2014-Jul-28 06:05N 32°31' E 029°03'3018.3
2014-Jul-28 04:29N 32°39' E 028°30'1718.4
2014-Jul-28 03:33N 32°44' E 028°10'1818.2
2014-Jul-28 02:33N 32°48' E 027°49'5917.9
2014-Jul-27 23:18N 33°04' E 026°42'1318.1
2014-Jul-27 22:33N 33°08' E 026°27'33818.4
2014-Jul-27 04:11N 34°36' E 019°54'1218.6
2014-Jul-27 03:33N 34°39' E 019°41'20518.5
2014-Jul-26 16:27N 35°33' E 015°39'1718.4
2014-Jul-26 15:31N 35°37' E 015°18'1818.5
2014-Jul-26 14:33N 35°42' E 014°57'1717.4
2014-Jul-26 13:33N 35°47' E 014°37'4 4.0
2014-Jul-26 12:33N 35°49' E 014°32'0 0.0
2014-Jul-26 11:33N 35°49' E 014°32'0 0.0
2014-Jul-26 10:24N 35°49' E 014°32'0 0.0
2014-Jul-26 09:33N 35°49' E 014°32'0 0.0
2014-Jul-26 08:18N 35°49' E 014°32'0 0.0
2014-Jul-26 07:33N 35°49' E 014°32'0 0.0
2014-Jul-26 06:30N 35°49' E 014°32'0 0.0
2014-Jul-26 05:21N 35°49' E 014°32'0 0.0
2014-Jul-26 04:33N 35°49' E 014°32'0 0.0
2014-Jul-26 03:33N 35°49' E 014°32'0 0.0
2014-Jul-26 02:33N 35°49' E 014°32'0 0.0
2014-Jul-26 01:33N 35°49' E 014°32'0 0.0
2014-Jul-26 00:33N 35°49' E 014°32'0 0.0
2014-Jul-25 23:33N 35°49' E 014°32'0 0.0
2014-Jul-25 22:24N 35°49' E 014°32'0 0.0
2014-Jul-25 21:33N 35°49' E 014°32'0 0.0
2014-Jul-25 20:33N 35°49' E 014°32'0 0.0
2014-Jul-25 19:33N 35°49' E 014°32'0 0.0
2014-Jul-25 18:33N 35°49' E 014°32'0 0.0
2014-Jul-25 17:33N 35°49' E 014°32'0 0.0
2014-Jul-25 16:33N 35°49' E 014°32'0 0.0
2014-Jul-25 15:33N 35°49' E 014°32'0 0.0
2014-Jul-25 14:33N 35°49' E 014°32'0 0.0
2014-Jul-25 13:33N 35°49' E 014°32'0 0.0
2014-Jul-25 12:15N 35°49' E 014°32'0 0.0
2014-Jul-25 11:33N 35°49' E 014°32'0 0.0
2014-Jul-25 10:27N 35°49' E 014°32'0 0.0
2014-Jul-25 09:33N 35°49' E 014°32'0 0.0
2014-Jul-25 08:33N 35°49' E 014°32'0 0.0
2014-Jul-25 07:33N 35°49' E 014°32'0 0.0
2014-Jul-25 06:27N 35°49' E 014°32'0 0.0
2014-Jul-25 05:30N 35°49' E 014°32'0 0.0
2014-Jul-25 03:24N 35°49' E 014°32'0 0.0
2014-Jul-25 02:30N 35°49' E 014°32'0 0.0
2014-Jul-25 01:33N 35°49' E 014°32'0 0.0
2014-Jul-25 00:33N 35°49' E 014°32'0 0.0
2014-Jul-24 23:33N 35°49' E 014°32'0 0.0
2014-Jul-24 22:33N 35°49' E 014°32'0 0.0
2014-Jul-24 21:33N 35°49' E 014°32'0 0.0
2014-Jul-24 20:33N 35°49' E 014°32'0 0.0
2014-Jul-24 19:30N 35°49' E 014°32'0 0.0
2014-Jul-24 18:30N 35°49' E 014°32'0 0.0
2014-Jul-24 17:33N 35°49' E 014°32'0 0.0
2014-Jul-24 16:30N 35°49' E 014°32'0 0.0
2014-Jul-24 15:33N 35°49' E 014°32'0 0.4
2014-Jul-24 14:33N 35°49' E 014°33'4 3.9
2014-Jul-24 13:33N 35°45' E 014°34'1513.5
2014-Jul-24 12:29N 35°48' E 014°16'1314.6
2014-Jul-24 11:33N 35°56' E 014°03'1414.2
2014-Jul-24 10:33N 36°04' E 013°48'1414.2
2014-Jul-24 09:33N 36°11' E 013°33'1714.8
2014-Jul-24 08:23N 36°20' E 013°14'911.0
2014-Jul-24 07:33N 36°25' E 013°05'33513.9
2014-Jul-23 07:31N 37°12' E 006°10'1414.6
2014-Jul-23 06:33N 37°11' E 005°52'4815.3
2014-Jul-23 03:26N 37°09' E 004°53'1315.4
2014-Jul-23 02:34N 37°08' E 004°36'1615.6
2014-Jul-23 01:33N 37°08' E 004°16'1515.2
2014-Jul-23 00:33N 37°07' E 003°57'1615.9
2014-Jul-22 23:33N 37°04' E 003°37'1615.6
2014-Jul-22 22:33N 37°02' E 003°18'1616.2
2014-Jul-22 21:33N 36°59' E 002°58'1615.9
2014-Jul-22 20:33N 36°57' E 002°39'1615.6
2014-Jul-22 19:34N 36°54' E 002°19'1515.4
2014-Jul-22 18:33N 36°52' E 002°00'1515.5
2014-Jul-22 17:33N 36°49' E 001°41'1515.1
2014-Jul-22 16:33N 36°47' E 001°22'1515.0
2014-Jul-22 15:34N 36°45' E 001°04'1616.0
2014-Jul-22 14:33N 36°42' E 000°44'1818.0
2014-Jul-22 13:33N 36°39' E 000°22'1818.3
2014-Jul-22 12:33N 36°36' W 000°00'1817.9
2014-Jul-22 11:33N 36°34' W 000°23'1818.1
2014-Jul-22 10:33N 36°32' W 000°45'1818.2
2014-Jul-22 09:33N 36°28' W 001°07'1818.4
2014-Jul-22 08:33N 36°25' W 001°30'1717.1
2014-Jul-22 07:33N 36°22' W 001°51'1615.6
2014-Jul-22 06:34N 36°20' W 002°10'1515.2
2014-Jul-22 05:33N 36°18' W 002°29'13916.7
2014-Jul-21 21:15N 35°59' W 005°19'8 0.4
2014-Jul-21 00:23N 35°57' W 005°28'9 7.7
2014-Jul-20 23:13N 36°02' W 005°18'  
Track history (hours):
 
Tides and Currents Weather Stations Pressure Air Temp Water Temp Dewpoint Dewpoint Depression Visibility Wind Speed Wind Dir Waves Ship Positions

CMA CGM Butterfly

Last reported at 2014-Jul-28 22:33 UTC. Time now 2014-Jul-28 22:40 UTC.
Position N 31°21' E 032°23'.

Length 350 m; draft 13.6 m.

Type: Ship (hazmat cat A). MMSI: 636091420.

Date/timePositionNaut miles runAvg speedWind from/ knotsBaromVisibWave heightAir tempDewpointWater temp
2014-Jul-28 22:33N 31°21' E 032°23'8 7.5
2014-Jul-28 21:33N 31°28' E 032°19'1 0.9
2014-Jul-28 20:33N 31°28' E 032°18'0 0.0
2014-Jul-28 18:33N 31°28' E 032°18'0 0.0
2014-Jul-28 17:33N 31°28' E 032°18'0 0.1
2014-Jul-28 16:33N 31°28' E 032°18'7 7.3
2014-Jul-28 15:33N 31°33' E 032°11'1716.7
2014-Jul-28 14:33N 31°44' E 031°58'1818.2
2014-Jul-28 13:33N 31°55' E 031°41'2618.7
2014-Jul-28 12:12N 32°02' E 031°11'1718.6
2014-Jul-28 11:17N 32°06' E 030°52'1418.7
2014-Jul-28 10:33N 32°10' E 030°37'2118.4
2014-Jul-28 09:25N 32°15' E 030°13'1718.2
2014-Jul-28 08:28N 32°20' E 029°53'4318.3
2014-Jul-28 06:05N 32°31' E 029°03'3018.3
2014-Jul-28 04:29N 32°39' E 028°30'1718.4
2014-Jul-28 03:33N 32°44' E 028°10'1818.2
2014-Jul-28 02:33N 32°48' E 027°49'5917.9
2014-Jul-27 23:18N 33°04' E 026°42'1318.1
2014-Jul-27 22:33N 33°08' E 026°27'33818.4
2014-Jul-27 04:11N 34°36' E 019°54'1218.6
2014-Jul-27 03:33N 34°39' E 019°41'20518.5
2014-Jul-26 16:27N 35°33' E 015°39'1718.4
2014-Jul-26 15:31N 35°37' E 015°18'1818.5
2014-Jul-26 14:33N 35°42' E 014°57'1717.4
2014-Jul-26 13:33N 35°47' E 014°37'4 4.0
2014-Jul-26 12:33N 35°49' E 014°32'0 0.0
2014-Jul-26 11:33N 35°49' E 014°32'0 0.0
2014-Jul-26 10:24N 35°49' E 014°32'0 0.0
2014-Jul-26 09:33N 35°49' E 014°32'0 0.0
2014-Jul-26 08:18N 35°49' E 014°32'0 0.0
2014-Jul-26 07:33N 35°49' E 014°32'0 0.0
2014-Jul-26 06:30N 35°49' E 014°32'0 0.0
2014-Jul-26 05:21N 35°49' E 014°32'0 0.0
2014-Jul-26 04:33N 35°49' E 014°32'0 0.0
2014-Jul-26 03:33N 35°49' E 014°32'0 0.0
2014-Jul-26 02:33N 35°49' E 014°32'0 0.0
2014-Jul-26 01:33N 35°49' E 014°32'0 0.0
2014-Jul-26 00:33N 35°49' E 014°32'0 0.0
2014-Jul-25 23:33N 35°49' E 014°32'0 0.0
2014-Jul-25 22:24N 35°49' E 014°32'0 0.0
2014-Jul-25 21:33N 35°49' E 014°32'0 0.0
2014-Jul-25 20:33N 35°49' E 014°32'0 0.0
2014-Jul-25 19:33N 35°49' E 014°32'0 0.0
2014-Jul-25 18:33N 35°49' E 014°32'0 0.0
2014-Jul-25 17:33N 35°49' E 014°32'0 0.0
2014-Jul-25 16:33N 35°49' E 014°32'0 0.0
2014-Jul-25 15:33N 35°49' E 014°32'0 0.0
2014-Jul-25 14:33N 35°49' E 014°32'0 0.0
2014-Jul-25 13:33N 35°49' E 014°32'0 0.0
2014-Jul-25 12:15N 35°49' E 014°32'0 0.0
2014-Jul-25 11:33N 35°49' E 014°32'0 0.0
2014-Jul-25 10:27N 35°49' E 014°32'0 0.0
2014-Jul-25 09:33N 35°49' E 014°32'0 0.0
2014-Jul-25 08:33N 35°49' E 014°32'0 0.0
2014-Jul-25 07:33N 35°49' E 014°32'0 0.0
2014-Jul-25 06:27N 35°49' E 014°32'0 0.0
2014-Jul-25 05:30N 35°49' E 014°32'0 0.0
2014-Jul-25 03:24N 35°49' E 014°32'0 0.0
2014-Jul-25 02:30N 35°49' E 014°32'0 0.0
2014-Jul-25 01:33N 35°49' E 014°32'0 0.0
2014-Jul-25 00:33N 35°49' E 014°32'0 0.0
2014-Jul-24 23:33N 35°49' E 014°32'0 0.0
2014-Jul-24 22:33N 35°49' E 014°32'0 0.0
2014-Jul-24 21:33N 35°49' E 014°32'0 0.0
2014-Jul-24 20:33N 35°49' E 014°32'0 0.0
2014-Jul-24 19:30N 35°49' E 014°32'0 0.0
2014-Jul-24 18:30N 35°49' E 014°32'0 0.0
2014-Jul-24 17:33N 35°49' E 014°32'0 0.0
2014-Jul-24 16:30N 35°49' E 014°32'0 0.0
2014-Jul-24 15:33N 35°49' E 014°32'0 0.4
2014-Jul-24 14:33N 35°49' E 014°33'4 3.9
2014-Jul-24 13:33N 35°45' E 014°34'1513.5
2014-Jul-24 12:29N 35°48' E 014°16'1314.6
2014-Jul-24 11:33N 35°56' E 014°03'1414.2
2014-Jul-24 10:33N 36°04' E 013°48'1414.2
2014-Jul-24 09:33N 36°11' E 013°33'1714.8
2014-Jul-24 08:23N 36°20' E 013°14'911.0
2014-Jul-24 07:33N 36°25' E 013°05'33513.9
2014-Jul-23 07:31N 37°12' E 006°10'1414.6
2014-Jul-23 06:33N 37°11' E 005°52'4815.3
2014-Jul-23 03:26N 37°09' E 004°53'1315.4
2014-Jul-23 02:34N 37°08' E 004°36'1615.6
2014-Jul-23 01:33N 37°08' E 004°16'1515.2
2014-Jul-23 00:33N 37°07' E 003°57'1615.9
2014-Jul-22 23:33N 37°04' E 003°37'1615.6
2014-Jul-22 22:33N 37°02' E 003°18'1616.2
2014-Jul-22 21:33N 36°59' E 002°58'1615.9
2014-Jul-22 20:33N 36°57' E 002°39'1615.6
2014-Jul-22 19:34N 36°54' E 002°19'1515.4
2014-Jul-22 18:33N 36°52' E 002°00'1515.5
2014-Jul-22 17:33N 36°49' E 001°41'1515.1
2014-Jul-22 16:33N 36°47' E 001°22'1515.0
2014-Jul-22 15:34N 36°45' E 001°04'1616.0
2014-Jul-22 14:33N 36°42' E 000°44'1818.0
2014-Jul-22 13:33N 36°39' E 000°22'1818.3
2014-Jul-22 12:33N 36°36' W 000°00'1817.9
2014-Jul-22 11:33N 36°34' W 000°23'1818.1
2014-Jul-22 10:33N 36°32' W 000°45'1818.2
2014-Jul-22 09:33N 36°28' W 001°07'1818.4
2014-Jul-22 08:33N 36°25' W 001°30'1717.1
2014-Jul-22 07:33N 36°22' W 001°51'1615.6
2014-Jul-22 06:34N 36°20' W 002°10'1515.2
2014-Jul-22 05:33N 36°18' W 002°29'13916.7
2014-Jul-21 21:15N 35°59' W 005°19'8 0.4
2014-Jul-21 00:23N 35°57' W 005°28'9 7.7
2014-Jul-20 23:13N 36°02' W 005°18'  

Dump ship's entire track history